Regional Weather Roundup
Issued by NWS

Home | Current Version | Previous Version | Text Only | Print | Product List | Glossary On
Versions: 1 2 3 4 5 6 7 8 9 10 11 12 13 14 15 16 17 18 19 20 21 22 23 24 25 26 27 28 29 30 31 32 33 34 35 36 37 38 39 40 41 42 43 44 45 46 47 48 49 50
000
ASUS43 KDTX 231010
RWRMI
MICHIGAN HOURLY REGIONAL WEATHER ROUNDUP
NATIONAL WEATHER SERVICE DETROIT/PONTIAC MI
600 AM EDT TUE MAY 23 2017

NOTE: "FAIR" INDICATES FEW OR NO CLOUDS BELOW 12,000 FEET WITH NO
SIGNIFICANT WEATHER AND/OR OBSTRUCTION TO VISIBILITY.

MIZ047>049-052>055-059>063-066>070-074>076-081>083-231100-
SOUTHEAST LOWER MICHIGAN

CITY           SKY/WX    TMP DP  RH WIND       PRES   REMARKS
ADRIAN         CLOUDY    55  50  83 CALM      29.90F
ALMA           CLOUDY    55  52  89 S9        29.85F
ANN ARBOR      CLOUDY    56  50  80 SE3       29.88F
BAD AXE        CLOUDY    55  49  82 S3        29.86S
CARO           LGT RAIN  56  52  87 S3        29.85S
DETROIT CITY   CLOUDY    59  51  75 SW8       29.90R
DETROIT        CLOUDY    57  49  74 S5        29.91R
FLINT          CLOUDY    58  50  75 SW6       29.87S
GROSSE ILE     CLOUDY    59  52  76 SW7       29.89S
HILLSDALE      CLOUDY    55  46  71 S3        29.89S
HOWELL         RAIN      57  49  74 SW3       29.88R

CITY           SKY/WX    TMP DP  RH WIND       PRES   REMARKS
JACKSON        CLOUDY    57  51  80 S6        29.88F
LAMBERTVILLE   CLOUDY    57  48  72 S6        29.90S
LANSING        CLOUDY    58  51  78 S6        29.87F
LAPEER         RAIN      59  49  69 SW6       29.88R
MASON          LGT RAIN  57  51  80 S3        29.88S
MONROE         CLOUDY    56  49  77 S3        29.89S
MT. CLEMENS    CLOUDY    56  53  88 S6        29.87S
PONTIAC        CLOUDY    58  49  72 S6        29.88R
PORT HOPE        N/A     53  50  89 SW3       29.83S
PORT HURON     CLOUDY    55  50  82 S5        29.89S
TRI CITIES     LGT RAIN  59  52  77 SW8       29.85S
MIDLAND        RAIN      56  52  84 SW3       29.84S
TROY           PTCLDY    59  46  60 SW5       29.91R
SAGINAW HB     DRIZZLE   59  50  72 SW8       29.85S
$$
MIZ043>046-050>051-056>058-064>065-071>073-077>080-231100-
SOUTHWEST LOWER MICHIGAN

CITY           SKY/WX    TMP DP  RH WIND       PRES   REMARKS
BATTLE CREEK   CLOUDY    59  51  75 S9        29.87F
BENTON HARBOR  CLOUDY    59  51  75 SE5       29.84S
BIG RAPIDS     CLOUDY    54  52  94 SW9       29.82S
COLDWATER      CLOUDY    57  53  86 CALM      29.89S
FREMONT        CLOUDY    54  52  95 CALM      29.82S
HOLLAND        CLOUDY    60  51  72 SW9       29.84F
GRAND RAPIDS   CLOUDY    58  53  84 S7        29.84F
IONIA          CLOUDY    57  52  84 S8        29.84F
KALAMAZOO      LGT RAIN  59  50  72 S9        29.87S
LUDINGTON      CLOUDY    51  51  99 CALM      29.80R
MARSHALL       CLOUDY    58  51  76 S5        29.87F
MOUNT PLEASANT CLOUDY    55  52  90 CALM      29.83S
MUSKEGON       CLOUDY    56  51  84 S9        29.82F
SOUTH HAVEN    CLOUDY    62  51  66 SW7G16    29.84S
$$
MIZ016>042-231100-
NORTHERN LOWER MICHIGAN

CITY           SKY/WX    TMP DP  RH WIND       PRES   REMARKS
ALPENA         CLEAR     40  39  97 CALM      29.83S
BEAVER ISLAND    N/A     36  36 100 CALM      29.83R FOG
BELLAIRE       FOG       43  41  95 CALM      29.83R VSB<1/4
CADILLAC       PTCLDY    40  39  95 CALM      29.82R
CHARLEVOIX     FOG       43  43 100 CALM      29.85F VSB 1/4
FRANKFORT      PTCLDY    41  38  91 CALM      29.81S
GAYLORD        FOG       41  38  89 CALM      29.82S VSB 1/4
GRAYLING       CLEAR     35  34  96 CALM      29.83F
HARBOR SPRINGS FOG       42  42 100 CALM      29.83S VSB 3/4
HOUGHTON LAKE  MOCLDY    43  41  93 CALM      29.84R FOG
MANISTEE       CLEAR     44  43  96 E5        29.81R
OSCODA         MOCLDY    48  46  93 S3        29.83S
PELLSTON       FOG       39  37  92 CALM      29.83S VSB 1/4
ROGERS CITY    FOG       40  39  97 CALM      29.84F VSB 1/2
TRAVERSE CITY  CLEAR     44  41  89 CALM      29.81S
$$
MIZ007>008-015-231100-
EASTERN UPPER MICHIGAN

CITY           SKY/WX    TMP DP  RH WIND       PRES   REMARKS
KINROSS        FOG       44  44 100 N3        29.83S VSB<1/4
MACKINAC ISLAN FOG       43  43 100 N6        29.81F VSB 1/4
NEWBERRY       FOG       36  36  97 CALM      29.82S VSB 1/2
S. S. MARIE    FOG       46  45  96 CALM      29.83S VSB 1/2
MUNISING         N/A     37  36  96 S5        29.82S WCI  33
$$
MIZ004>006-011>014-085-231100-
CENTRAL UPPER MICHIGAN

CITY           SKY/WX    TMP DP  RH WIND       PRES   REMARKS
MANISTIQUE     FOG       35  32  89 CALM      29.82S VSB<1/4
ESCANABA       CLEAR     37  37 100 N6        29.82S WCI  32
MENOMINEE      PTCLDY    43  42  97 CALM      29.81S
SAWYER-GWINN   MOCLDY    32  32 100 CALM      29.82F FOG
$$
MIZ001>003-009>011-084-231100-
WESTERN UPPER MICHIGAN

CITY           SKY/WX    TMP DP  RH WIND       PRES   REMARKS
IRON MOUNTAIN  CLOUDY    39  36  89 NW3       29.80F
HOUGHTON       CLEAR     43  38  82 W3        29.81R
COPPER HARBOR    N/A     43  40  89 CALM      29.81R
IRONWOOD       MOCLDY    43  43 100 CALM      29.82S
$$

ABBREVIATIONS USED IN REMARKS
   TC - TEMPERATURE IN CELSIUS
  WCI - WIND CHILL INDEX
   HX - HEAT INDEX
  VSB - VISIBILITY




USA.gov is the U.S. government's official web portal to all federal, state and local government web resources and services.